Regional Weather Roundup
Issued by NWS Jackson, KY

Home | Current Version | Previous Version | Text Only | Print | Product List | Glossary Off
Versions: 1 2 3 4 5 6 7 8 9 10 11 12 13 14 15 16 17 18 19 20 21 22 23 24 25 26 27 28 29 30 31 32 33 34 35 36 37 38 39 40 41 42 43 44 45 46 47 48 49 50

000
ASUS43 KJKL 011719
RWRJKL

EAST KENTUCKY HOURLY WEATHER ROUNDUP
NATIONAL WEATHER SERVICE JACKSON KY
100 PM EDT WED OCT 01 2014

NOTE: "FAIR" INDICATES FEW OR NO CLOUDS BELOW 12,000 FEET WITH
NO SIGNIFICANT WEATHER AND/OR OBSTRUCTIONS TO VISIBILITY.

* THESE REPORTS ARE NOT UNDER NWS QUALITY CONTROL AND MAY NOT
  REPORT WEATHER SUCH AS PRECIPITATION AND FOG.

KYZ079-080-083-085-087-088-110-112-115-119-120-011800
...EASTERN KENTUCKY...

CITY           SKY/WX    TMP DP  RH WIND       PRES   REMARKS
JACKSON        SUNNY     72  60  66 VRB3      30.04F
LONDON         SUNNY     79  57  46 SW6       30.03F
SOMERSET*      SUNNY     79  55  44 CALM      30.03F
MONTICELLO*    SUNNY     82  57  42 S5        30.03F
WILLIAMSBURG*  SUNNY     77  59  53 CALM      30.03F
MIDDLESBORO*   MOSUNNY   78  57  49 S5        30.04F
HARLAN APT*    SUNNY     77  54  44 SW3       30.05S
HAZARD APT*    SUNNY     75  59  57 CALM      30.03F
BLACK MTN*       N/A     70  46  43 SE2         N/A
PIKEVILLE APT* SUNNY     66  61  82 NW3       30.04F
BIG SANDY*     SUNNY     71  62  73 CALM      30.04F
MOREHEAD APT*  SUNNY     73  61  64 CALM      30.05F
ASHLAND*       CLOUDY    66  55  68 CALM      30.02F
$$

KYZ035-036-041-042-044-050-067-078-099-011800
...CENTRAL KENTUCKY...

CITY           SKY/WX    TMP DP  RH WIND       PRES   REMARKS
MT STERLING*   SUNNY     70  61  73 CALM      30.05F
FLEMING/MASON* SUNNY     70  59  68 CALM      30.04F
DANVILLE*      CLOUDY    79  57  47 NW7       30.02F
RICHMOND*      MOSUNNY   77  59  53 CALM      30.02F
LEXINGTON      SUNNY     74  61  63 CALM      30.03F
FRANKFORT      SUNNY     71  59  65 NE5       30.02F
$$

KYZ091>093-OHZ055-061-077-WVZ005-015-034-035-042-011800
...SOUTHERN OHIO/WEST VIRGINIA...

CITY           SKY/WX    TMP DP  RH WIND       PRES   REMARKS
COVINGTON      MOSUNNY   68  51  54 SE3       30.03F
COLUMBUS       MOSUNNY   64  48  55 SE5       30.04F
DAYTON         CLOUDY    57  52  83 SE3       30.08S FOG
WILMINGTON     PTSUNNY   60  52  74 N7        30.06S
HUNTINGTON     CLOUDY    69  60  73 CALM      30.02F
CHARLESTON     CLOUDY    65  58  78 N3        30.04R
PINEVILLE*     SUNNY     77  63  61 MISG      30.09F
BECKLEY        SUNNY     73  55  53 SW8G16    30.07S
BLUEFIELD      MOSUNNY   74  53  48 W8        30.09F
$$

VAZ002-007-008-TNZ017-027-036-066-071-011800
...SOUTHWEST VIRGINIA/EAST TENNESSEE...

CITY           SKY/WX    TMP DP  RH WIND       PRES   REMARKS
WISE*          PTSUNNY   73  45  35 NW3       30.10S
JONESVILLE*    SUNNY     75  57  53 CALM      30.06F
ABINGDON*      SUNNY     76  54  45 CALM      30.07S
BRISTOL        MOSUNNY   77  54  44 VRB3      30.05F
KNOXVILLE      PTSUNNY   77  59  53 CALM      30.02
OAK RIDGE      MOSUNNY   76  59  55 VRB3      30.04F
CROSSVILLE     MOSUNNY   77  50  38 W7        30.06F
NASHVILLE      MOSUNNY   85  55  35 S3        29.99F
$$

...KEY TO REMARKS...
VSB - VISIBILITY IN MILES
WCI - WIND CHILL INDEX
HX  - HEAT INDEX

$$



USA.gov is the U.S. government's official web portal to all federal, state and local government web resources and services.